Regional Weather Roundup
Issued by NWS

Home | Current Version | Previous Version | Text Only | Print | Product List | Glossary Off
Versions: 1 2 3 4 5 6 7 8 9 10 11 12 13 14 15 16 17 18 19 20 21 22 23 24 25 26 27 28 29 30 31 32 33 34 35 36 37 38 39 40 41 42 43 44 45 46 47 48 49 50

000
ASUS43 KMKX 290300
RWRWI

WISCONSIN REGIONAL WEATHER ROUNDUP
NATIONAL WEATHER SERVICE MILWAUKEE/SULLIVAN WI
1000 PM CDT THU AUG 28 2014

NOTE: "FAIR" INDICATES FEW OR NO CLOUDS BELOW 12,000 FEET WITH NO
SIGNIFICANT WEATHER AND/OR OBSTRUCTIONS TO VISIBILITY.

WIZ001-002-006>008-014>016-023>028-290400-
NORTHWEST WISCONSIN

CITY           SKY/WX    TMP DP  RH WIND       PRES   REMARKS
SUPERIOR ARPT  CLOUDY    61  59  94 NE3       29.98F
ASHLAND        CLOUDY    58  55  90 CALM      30.00F
HAYWARD        CLOUDY    65  61  87 S9        30.00F
SIREN          CLOUDY    65  62  90 SE6       29.97F
RICE LAKE      CLOUDY    64  60  89 E8        30.00F
LADYSMITH      CLOUDY    65  62  90 SE5       30.03F
EAU CLAIRE     LGT RAIN  65  64  97 SE9       29.97F
MENOMONIE      CLOUDY    65  64  96 E8        29.98S FOG
NEW RICHMOND   CLOUDY    65  64  94 E8        29.95F
OSCEOLA        CLOUDY    66  65  99 E12       29.97F
$$

WIZ003>005-009-010-017-018-290400-
NORTH CENTRAL WISCONSIN

CITY           SKY/WX    TMP DP  RH WIND       PRES   REMARKS
WOODRUFF       CLOUDY    64  59  83 S7        30.05F
RHINELANDER    CLOUDY    62  59  90 S7        30.06F
EAGLE RIVER    CLOUDY    63  57  81 S5        30.06S
LAND O LAKES   CLOUDY    63  58  86 S3        30.07S
PHILLIPS       CLOUDY    64  61  90 SE7       30.03F
TOMAHAWK       CLOUDY    62  59  90 SE5       30.06S
MEDFORD        RAIN      62  61  96 SE7       30.04F
MERRILL        CLOUDY    63  61  95 S9        30.05F
$$

WIZ029-030-035-036-043>047-290400-
CENTRAL WISCONSIN

CITY           SKY/WX    TMP DP  RH WIND       PRES   REMARKS
WAUSAU         CLOUDY    62  59  90 SE8       30.03F
MOSINEE        CLOUDY    61  59  94 SE6       30.06F
MARSHFIELD     LGT RAIN  62  59  90 SE8       30.03S
STEVENS POINT  CLOUDY    60  56  86 SE6       30.06F
WAUPACA        CLOUDY    64  59  83 SE3       30.06F
WAUTOMA        NOT AVBL
WISC RAPIDS    LGT RAIN  61  58  90 SE8       30.04F
CAMP DOUGLAS   NOT AVBL
$$

WIZ011>013-019>022-031-037>040-048>050-290400-
NORTHEAST WISCONSIN

CITY           SKY/WX    TMP DP  RH WIND       PRES   REMARKS
ANTIGO         CLOUDY    60  58  95 S7        30.08F
STURGEON BAY   CLOUDY    63  54  72 SE7       30.08F
GREEN BAY      CLOUDY    63  56  78 SE6       30.07F
MANITOWOC      NOT AVBL
APPLETON       CLOUDY    64  55  72 VRB5      30.07F
CLINTONVILLE   CLOUDY    61  59  94 CALM      30.06F
OSHKOSH        CLOUDY    65  54  67 SE8       30.05F
$$

WIZ032>034-041-042-053>061-290400-
SOUTHWEST WISCONSIN

CITY           SKY/WX    TMP DP  RH WIND       PRES   REMARKS
LA CROSSE      CLOUDY    67  65  93 SE5       29.96S
SPARTA         DRIZZLE   65  63  93 E8        29.99F
VIROQUA        CLOUDY    65  65 100 SE9       29.99R
BOSCOBEL       MOCLDY    71  58  63 VRB5      29.98S
PRAIRIE DU CHI CLOUDY    70  61  73 SE7       29.97R
PLATTEVILLE    MOCLDY    66  61  84 E12       30.00F
$$

WIZ056-057-062-063-064-067-068-290400-
SOUTH CENTRAL WISCONSIN

CITY           SKY/WX    TMP DP  RH WIND       PRES   REMARKS
BARABOO/DELLS  CLOUDY    64  53  66 SE9G17    30.02F
LONE ROCK      NOT AVBL
WATERTOWN      CLOUDY    62  57  82 E5        30.04F
MADISON        CLOUDY    65  55  70 SE12      30.02F
MIDDLETON      CLOUDY    67  54  61 SE12      30.02F
MONROE         CLOUDY    63  57  82 E9        30.02F
JANESVILLE     CLOUDY    64  57  77 E7        30.03S
$$

WIZ051-052-058>065-066-070>072-290400-
SOUTHEAST WISCONSIN

CITY           SKY/WX    TMP DP  RH WIND       PRES   REMARKS
MILWAUKEE      CLOUDY    66  59  78 E10       30.06F
WAUKESHA       CLOUDY    63  54  72 E7        30.06F
MILWAUKEE/TIMM CLOUDY    66  54  63 E6        30.07F
RACINE         CLOUDY    69  60  73 E12       30.07F
BURLINGTON     CLOUDY    63  58  86 E6        30.05F
KENOSHA        CLOUDY    67  61  81 E8        30.05F
FOND DU LAC    CLOUDY    63  54  72 SE5       30.05F
SHEBOYGAN      CLOUDY    63  57  81 E5        30.07F
WEST BEND      CLOUDY    61  54  77 CALM      30.07F
JUNEAU         CLOUDY    62  55  77 E7        30.06F
$$

LSZ147-162-290400-
LAKE SUPERIOR

STATION/POSITION TIME  TEMP    WIND        PRES    WAVE
                       AIR SEA DIR/SP/G            HT/PER
                 (UTC) (F)     (DEG/KT/KT) (MB)    (FT/S)
W MID LAKE BUOY  0150   61 58  100/ 10/ 10 1016.0F   0
DEVILS ISLAND    0200   62     130/  8/  9 1016.2R
PORT WING        0200   64     120/  4/  9 1015.6F
SAXON HARBOR     0200   62     200/  1/  3 1016.3R
$$

LMZ867-665-643>646-290400-
LAKE MICHIGAN

STATION/POSITION TIME  TEMP    WIND        PRES    WAVE
                       AIR SEA DIR/SP/G            HT/PER
                 (UTC) (F)     (DEG/KT/KT) (MB)    (FT/S)
N MID LAKE BUOY  0150   64 66  130/  8/ 10 1019.3F   0
NORTHPORT PIER   0200   65     130/  9/ 12 1019.0S
SISTER BAY       0211   61     140/  7/  9   N/A
ALGOMA LAKESHORE 0208          160/  9/ 10   N/A
KEWAUNEE LAKESHO 0200   64     140/  6/  9 1017.9F
SHEBOYGAN LAKESH 0200   66 68   80/  9/ 10 1018.8F
ATWATER BUOY     0200   68      90/ 10/ 12 1019.4R
MILWAUKEE LAKESH 0200   68      80/ 10/ 12   N/A
S MID LAKE BUOY  0150   69 69   80/ 14/ 16 1018.2R   1/ 3
KENOSHA   LAKESH 0200   70     110/ 10/ 12 1017.9R
$$

TC  - TEMPERATURE IN CELSIUS
VSB - VISIBILITY IN STATUTE MILES
WCI - WIND CHILL INDEX
HX  - HEAT INDEX



USA.gov is the U.S. government's official web portal to all federal, state and local government web resources and services.